Location: Alpha Ridge Park
(39.3209°N, 76.9128°W)
Time: 14:25:01
(UTC-04:00)

ISS - Visible Passes

Search period start: 25 April 2019 00:00
Search period end: 05 May 2019 00:00
Orbit: 408 x 410 km, 51.6° (Epoch: 26 April)

Date Brightness Start Highest point End Pass type
(mag) Time Alt. Az. Time Alt. Az. Time Alt. Az.
26 Apr -1.5 05:41:31 10° S 05:44:02 20° SE 05:46:33 10° E visible
27 Apr -0.9 04:52:38 10° SE 04:53:26 11° SE 04:54:15 10° ESE visible
28 Apr -3.3 05:35:32 10° SW 05:38:46 55° SE 05:42:02 10° ENE visible
29 Apr -2.2 04:46:30 19° S 04:48:03 28° SE 04:50:57 10° ENE visible
30 Apr -1.3 03:57:46 15° ESE 03:57:46 15° ESE 03:59:23 10° E visible
30 Apr -3.4 05:30:31 11° WSW 05:33:38 54° NW 05:36:54 10° NE visible
01 May -3.9 04:41:42 39° SW 04:42:47 80° SE 04:46:05 10° NE visible
02 May -2.4 03:52:48 33° E 03:52:48 33° E 03:55:06 10° ENE visible
02 May -2.2 05:25:49 10° W 05:28:38 25° NNW 05:31:28 10° NNE visible
03 May -2.9 04:36:34 29° WNW 04:37:38 40° NNW 04:40:48 10° NE visible
04 May -2.8 03:47:31 46° NNE 03:47:31 46° NNE 03:50:01 10° NE visible
04 May -1.3 05:21:39 10° WNW 05:23:45 16° NNW 05:25:51 10° NNE visible
